Location: Cuiry
(49.3858°N, 3.7708°E)
Time: 07:17:45
(UTC+00:00)

Meteor 1-12 Rocket - Pass Details

Date: 12 January 2026
Orbit: 854 x 925 km, 81.2° (Epoch: 18 February)

Event Time Altitude Azimuth Distance (km) Brightness Sun altitude
Rises 17:50:22 0° 350° (N) 3,454 7.3 -15.7°
Reaches altitude 10° 17:52:52 10° 354° (N) 2,506 6.6 -16.1°
Maximum altitude 17:58:28 60° 74° (ENE) 977 4.2 -17.0°
Drops below altitude 10° 18:04:01 10° 154° (SSE) 2,480 6.5 -17.9°
Sets 18:06:28 0° 158° (SSE) 3,414 7.3 -18.3°
